カタログに戻る

JILIN-1 GAOFEN 03D 55 XING

運用中科学SSO
NORAD 69099·PAYLOAD·🇨🇳 China
この衛星名は、まだ公式ソースで確認されていません。

打ち上げ May 15, 2026 から Jiuquan Satellite Launch Center

Loading…

次のパス (今後24時間)

TLE

最新Source: Space-Track

元期: Sep 14, 2026, 13:41 UTC

1 69099U 26106C   26257.57069150  .00005483  00000-0  32188-3 0  9998
2 69099  97.5051 338.0979 0012886 212.5273 147.5165 15.12064988 18482

AllMySatでJILIN-1 GAOFEN 03D 55 XINGをリアルタイム追跡

Download on the App Store